Weather History for Grant County, OR

Change the Weather History Date:

Saturday, August 17, 2013

  Actual Average (KBNO) Record (KBNO)
Temperature  
Mean Temperature 74 °F 65 °F  
Max Temperature 90 °F 85 °F 99 °F (2012)
Min Temperature 58 °F 45 °F 33 °F (1978)
Degree Days  
Heating Degree Days 0 2  
Month to date heating degree days 27  
Since 1 June heating degree days 303  
Since 1 July heating degree days 85  
Cooling Degree Days 8 2  
Month to date cooling degree days 54  
Year to date cooling degree days 186  
Since 1 June cooling degree days 183  
Growing Degree Days 24 (Base 50)    
Moisture  
Dew Point 50 °F    
Average Humidity 47    
Maximum Humidity 70    
Minimum Humidity 22    
Precipitation  
Precipitation 0.00 in 0.01 in 0.07 in (1949)
Month to date precipitation 0.19  
Year to date precipitation 6.81  
Sea Level Pressure  
Sea Level Pressure 30.09 in    
Wind  
Wind Speed 6 mph (WNW)    
Max Wind Speed 18 mph    
Max Gust Speed 24 mph    
Visibility 10 miles    
Events Rain    
T = Trace of Precipitation, MM = Missing Value Source: NWS Daily Summary

Daily Weather History Graph

Daily Weather History Graph

Search for Another Location

Airport:

Trip Planner

Search our weather history database for the weather conditions in past years. The results will help you decide how hot, cold, wet, or windy it might be!

Date:

Astronomy

Aug. 17, 2013 Rise Set
Actual Time 6:01 AM PDT 7:57 PM PDT
Civil Twilight 5:30 AM PDT 8:28 PM PDT
Nautical Twilight 4:51 AM PDT 9:06 PM PDT
Astronomical Twilight 4:09 AM PDT 9:48 PM PDT
Moon 5:20 PM PDT (8/17) 2:05 AM PDT (8/17)
Length of Visible Light 14h 58m
Length of Day
13h 55m
Waxing Gibbous, 85% of the Moon is Illuminated
Aug 17
Waxing Gibbous
Aug 20
Full
Aug 28
Last Quarter
Sep 5
New
Sep 12
First Quarter

Hourly Weather History & Observations

Time (PDT) Temp. Dew Point Humidity Pressure Visibility Wind Dir Wind Speed Gust Speed Precip Events Conditions
12:15 AM 67.3 °F 49.8 °F 53% 30.11 in 10.0 mi WSW 3.5 mph - N/A   Clear
12:35 AM 68.2 °F 50.4 °F 53% 30.11 in 10.0 mi WSW 3.5 mph - N/A   Clear
12:55 AM 67.1 °F 50.4 °F 55% 30.11 in 10.0 mi West 5.8 mph - N/A   Clear
1:15 AM 66.6 °F 50.5 °F 56% 30.11 in 10.0 mi West 3.5 mph - N/A   Clear
1:35 AM 66.2 °F 50.7 °F 57% 30.11 in 10.0 mi Calm Calm - N/A   Clear
1:55 AM 64.6 °F 49.6 °F 58% 30.11 in 10.0 mi East 4.6 mph - N/A   Clear
2:15 AM 63.7 °F 49.3 °F 59% 30.10 in 10.0 mi East 5.8 mph - N/A   Clear
2:35 AM 63.5 °F 49.1 °F 59% 30.11 in 10.0 mi East 6.9 mph - N/A   Clear
2:55 AM 62.8 °F 48.7 °F 60% 30.11 in 10.0 mi East 4.6 mph - N/A   Clear
3:15 AM 62.8 °F 48.7 °F 60% 30.11 in 10.0 mi East 4.6 mph - N/A   Clear
3:35 AM 61.7 °F 48.7 °F 62% 30.11 in 10.0 mi East 5.8 mph - N/A   Clear
3:55 AM 61.7 °F 48.7 °F 62% 30.11 in 10.0 mi East 8.1 mph - N/A   Clear
4:15 AM 61.7 °F 48.9 °F 63% 30.12 in 10.0 mi East 6.9 mph - N/A   Clear
4:35 AM 61.0 °F 48.7 °F 64% 30.12 in 10.0 mi East 6.9 mph - N/A   Clear
4:55 AM 60.8 °F 48.7 °F 64% 30.11 in 10.0 mi East 5.8 mph - N/A   Clear
5:15 AM 60.8 °F 49.1 °F 65% 30.11 in 10.0 mi East 5.8 mph - N/A   Clear
5:35 AM 59.2 °F 48.6 °F 68% 30.12 in 10.0 mi East 6.9 mph - N/A   Clear
5:55 AM 58.6 °F 48.6 °F 69% 30.12 in 10.0 mi ESE 8.1 mph - N/A   Clear
6:15 AM 58.5 °F 48.6 °F 70% 30.13 in 10.0 mi ESE 10.4 mph - N/A   Clear
6:35 AM 59.2 °F 48.9 °F 69% 30.13 in 10.0 mi ESE 8.1 mph - N/A   Clear
6:55 AM 59.5 °F 48.4 °F 67% 30.13 in 10.0 mi East 4.6 mph - N/A   Clear
7:15 AM 60.8 °F 48.9 °F 65% 30.14 in 10.0 mi ESE 8.1 mph - N/A   Clear
7:35 AM 62.6 °F 49.3 °F 62% 30.13 in 10.0 mi ESE 8.1 mph - N/A   Clear
7:55 AM 63.3 °F 49.3 °F 60% 30.13 in 10.0 mi ESE 6.9 mph - N/A   Clear
8:15 AM 65.1 °F 49.5 °F 57% 30.14 in 10.0 mi East 5.8 mph - N/A   Clear
8:35 AM 66.2 °F 50.4 °F 57% 30.14 in 10.0 mi Calm Calm - N/A   Clear
8:55 AM 67.1 °F 50.5 °F 55% 30.14 in 10.0 mi Calm Calm - N/A   Clear
9:15 AM 68.5 °F 51.8 °F 55% 30.14 in 10.0 mi West 4.6 mph - N/A   Clear
9:35 AM 71.4 °F 51.6 °F 50% 30.14 in 10.0 mi West 5.8 mph - N/A   Clear
9:55 AM 72.5 °F 52.9 °F 50% 30.14 in 10.0 mi West 6.9 mph - N/A   Scattered Clouds
10:15 AM 73.6 °F 53.6 °F 50% 30.14 in 10.0 mi WNW 5.8 mph - N/A   Scattered Clouds
10:35 AM 73.9 °F 53.2 °F 48% 30.13 in 10.0 mi West 5.8 mph - N/A   Scattered Clouds
10:55 AM 75.4 °F 52.5 °F 45% 30.13 in 10.0 mi West 4.6 mph - N/A   Clear
11:15 AM 77.9 °F 52.7 °F 41% 30.12 in 10.0 mi West 4.6 mph - N/A   Clear
11:35 AM 78.8 °F 52.0 °F 39% 30.12 in 10.0 mi WSW 5.8 mph - N/A   Clear
11:55 AM 81.1 °F 51.1 °F 35% 30.10 in 10.0 mi West 4.6 mph - N/A   Clear
12:15 PM 81.7 °F 49.6 °F 33% 30.09 in 10.0 mi West 4.6 mph - N/A   Clear
12:35 PM 83.5 °F 47.8 °F 29% 30.08 in 10.0 mi WNW 4.6 mph - N/A   Clear
12:55 PM 84.6 °F 44.4 °F 24% 30.08 in 10.0 mi WNW 5.8 mph - N/A   Clear
1:15 PM 86.2 °F 46.9 °F 25% 30.07 in 10.0 mi WNW 9.2 mph - N/A   Clear
1:35 PM 86.2 °F 47.7 °F 26% 30.07 in 10.0 mi WNW 5.8 mph - N/A   Clear
1:55 PM 86.7 °F 46.9 °F 25% 30.05 in 10.0 mi West 5.8 mph - N/A   Clear
2:15 PM 88.7 °F 47.1 °F 24% 30.05 in 10.0 mi WNW 11.5 mph - N/A   Clear
2:35 PM 88.2 °F 46.9 °F 24% 30.04 in 10.0 mi NNW 8.1 mph - N/A   Clear
2:55 PM 88.9 °F 46.8 °F 23% 30.03 in 10.0 mi NW 8.1 mph - N/A   Clear
3:15 PM 89.6 °F 45.9 °F 22% 30.02 in 10.0 mi WNW 11.5 mph 17.3 mph N/A   Clear
3:35 PM 89.6 °F 46.0 °F 22% 30.01 in 10.0 mi WNW 11.5 mph - N/A   Clear
3:55 PM 88.9 °F 45.7 °F 22% 30.01 in 10.0 mi West 13.8 mph 24.2 mph N/A   Clear
4:15 PM 86.5 °F 47.1 °F 25% 30.01 in 10.0 mi West 16.1 mph 21.9 mph N/A   Clear
4:35 PM 86.9 °F 48.0 °F 26% 30.01 in 10.0 mi WNW 18.4 mph 21.9 mph N/A   Clear
4:55 PM 82.9 °F 48.7 °F 30% 30.03 in 10.0 mi NW 13.8 mph - N/A   Clear
5:15 PM 82.6 °F 49.1 °F 31% 30.04 in 10.0 mi NW 15.0 mph 21.9 mph N/A   Scattered Clouds
5:35 PM 80.2 °F 52.5 °F 38% 30.05 in 10.0 mi West 13.8 mph 17.3 mph N/A   Clear
5:55 PM 79.0 °F 53.1 °F 40% 30.05 in 10.0 mi West 15.0 mph - N/A   Clear
6:15 PM 77.7 °F 52.9 °F 42% 30.05 in 10.0 mi West 12.7 mph 16.1 mph N/A   Clear
6:35 PM 79.9 °F 52.2 °F 38% 30.04 in 10.0 mi West 11.5 mph - N/A   Clear
6:55 PM 79.3 °F 52.2 °F 39% 30.04 in 10.0 mi West 10.4 mph - N/A Rain Light Rain
7:15 PM 78.3 °F 51.4 °F 39% 30.04 in 10.0 mi West 10.4 mph - N/A   Scattered Clouds
7:35 PM 76.3 °F 50.0 °F 40% 30.05 in 10.0 mi West 12.7 mph 18.4 mph N/A   Clear
7:55 PM 74.3 °F 50.4 °F 43% 30.06 in 10.0 mi West 9.2 mph - N/A   Clear
8:15 PM 73.4 °F 50.7 °F 45% 30.07 in 10.0 mi West 9.2 mph - N/A   Clear
8:35 PM 72.0 °F 51.1 °F 48% 30.07 in 10.0 mi WSW 5.8 mph - N/A   Clear
8:55 PM 70.7 °F 51.3 °F 50% 30.08 in 10.0 mi West 6.9 mph - N/A   Clear
9:15 PM 70.3 °F 51.8 °F 52% 30.09 in 10.0 mi West 8.1 mph - N/A   Clear
9:35 PM 69.8 °F 52.2 °F 53% 30.10 in 10.0 mi West 4.6 mph - N/A   Clear
9:55 PM 70.2 °F 52.3 °F 53% 30.10 in 10.0 mi NW 4.6 mph - N/A   Clear
10:15 PM 69.1 °F 51.8 °F 54% 30.11 in 10.0 mi NNW 5.8 mph - N/A   Clear
10:35 PM 70.3 °F 50.5 °F 49% 30.11 in 10.0 mi NNW 5.8 mph - N/A   Clear
10:55 PM 70.7 °F 50.2 °F 48% 30.12 in 10.0 mi North 5.8 mph - N/A   Clear
11:15 PM 69.6 °F 50.0 °F 50% 30.12 in 10.0 mi NNW 5.8 mph - N/A   Clear
11:35 PM 68.2 °F 50.0 °F 52% 30.12 in 10.0 mi NW 6.9 mph - N/A   Clear
11:55 PM 68.2 °F 50.4 °F 53% 30.13 in 10.0 mi NW 6.9 mph - N/A   Clear